FENGYUN 1C DEB

Satellite information

Favourite Embed

Satellite Type and Status

DEBRISIN ORBIT

Key statistics

Satellite FENGYUN 1C DEB at a glance.

Uptime

9667

Days in orbit

Revolutions

≈ 12.8

Per day

Orbit

SSO

Sun Synchronous Orbit

Inclination

99.2

Latest

Satellite identification and parameters

Extended collection of information and parameters for FENGYUN 1C DEB.

Object identification

Identified? True

Debris? True

Object name: FENGYUN 1C DEB

International designator: 1999-025CDY

Object number (NORAD): 31725

Object ID (CCSDS): 31725

Country: PEOPLES REPUBLIC OF CHINA (PRC)

Current information (Y/N): Y

RCS size: SMALL

Orbital parameters

Period: 112.595 minutes

Inclination: 99.1846 deg

SMA: 7723.962 km

Apoapsis: 1878.939 km

Periapsis: 812.715 km

RAAN: 163.978 deg

Eccentricy: 0.06902051

Argument of periapsis: 83.2218 deg

Mean anomaly: 284.6869 deg

Mean motion: 12.78917655 rev/day

Mean motion (dot): 0.00002405 rev/day2

B* drag term: 0.0039654397 1/REarth

Two-line elements (TLE)

Creation date: Oct. 26, 2025, 2:54 a.m.

Reference frame: TEME

Reference center: EARTH

Epoch: Oct. 25, 2025, 9:05 a.m. UTC

TLE line 0: 0 FENGYUN 1C DEB

TLE line 1: 1 31725U 99025CDY 25298.37890537 .00002405 00000-0 39654-2 0 9991

TLE line 2: 2 31725 99.1846 163.9780 0690205 83.2218 284.6869 12.78917655858631

Live tracking on map

Real-time ground track for satellite FENGYUN 1C DEB.

In-orbit conjunctions

A list of the most updated potential collisions computed for object FENGYUN 1C DEB.

Target Orbit TCA Probability of collision Miss distance Type
COSMOS 980 LEO 2025-04-29 21:01:35 0.0001311221 297.0 (m) PAYLOAD
COSMOS 2250 LEO 2025-04-10 18:55:46 0.0003558722 311.0 (m) PAYLOAD
SL-8 R/B LEO 2024-11-07 18:19:55 0.0001918697 419.0 (m) ROCKET BODY

Associated space launch

Chinese polar orbiting meteorological satellite

FENGYUN 1C DEB was lifted into orbit during the mission ‘Long March 4B | Feng Yun 1C’, on board a Long March 4B space rocket.

The launch took place on May 10, 1999, 1:33 a.m. from Launch Complex 7.

For more information about the launch, click the button.

Launch to space Long March 4B | Feng Yun 1C
Long March 4B | Feng Yun 1C

Agency: N/A

Status: Launch Successful

Launch date: May 10, 1999, 1:33 a.m. UTC

Rocket: Long March 4B

Launch pad: Launch Complex 7

Location: Taiyuan Satellite Launch Center, People's Republic of China

...

Latest news about this satellite

There are no fresh news available about this satellite. Check back as we update our databases every day.


Newsletter sign-up

Weekly statistics, charts and insights to help you stay on top of the space industry.